SB KEPS @ AMSAT $ORB07340.N 2Line Orbital Elements 07340.AMSAT
HR AMSAT ORBITAL ELEMENTS FOR AMATEUR SATELLITES IN NASA FORMAT FROM WA5QGD FORT WORTH,TX December 6, 2007 Send Subscribe/unsubscribe to KEPS at http://www.amsat.org/mailman/listinfo/keps BID: ORB07340.N
DECODE 2-LINE ELSETS WITH THE FOLLOWING KEY: 1 AAAAAU 00 0 0 BBBBB.BBBBBBBB .CCCCCCCC 00000-0 00000-0 0 DDDZ 2 AAAAA EEE.EEEE FFF.FFFF GGGGGGG HHH.HHHH III.IIII JJ.JJJJJJJJKKKKKZ KEY: A-CATALOGNUM B-EPOCHTIME C-DECAY D-ELSETNUM E-INCLINATION F-RAAN G-ECCENTRICITY H-ARGPERIGEE I-MNANOM J-MNMOTION K-ORBITNUM Z-CHECKSUM
TO ALL RADIO AMATEURS BT
PO-63 1 29712U 07001D 07340.80305040 .00000525 00000-0 76356-4 0 9783 2 29712 097.9030 037.3986 0013090 291.3278 068.6538 14.79926443 48863 PO-63 1 29712U 07001D 07340.80305040 .00000525 00000-0 76356-4 0 9783 2 29712 097.9030 037.3986 0013090 291.3278 068.6538 14.79926443 48863 PO-63 1 29712U 07001D 07340.80305040 .00000525 00000-0 76356-4 0 9783 2 29712 097.9030 037.3986 0013090 291.3278 068.6538 14.79926443 48863 VO-52 1 28650U 05017B 07339.81352247 -.00000080 00000-0 -34809-5 0 07962 2 28650 097.8149 046.5208 0028177 055.9457 304.4442 14.81389725139828 AO-40 1 26609U 00072B 07339.52928811 -.00000099 00000-0 10000-3 0 09779 2 26609 007.0899 108.3144 7931918 029.3281 357.6125 01.25583743032598 SO-33 1 25509U 98061B 07339.38181839 .00000151 00000-0 18509-4 0 00791 2 25509 031.4303 337.8079 0354885 124.0785 239.4047 14.28188241475749 FO-29 1 24278U 96046B 07339.92228057 .00000028 00000-0 65980-4 0 06624 2 24278 098.5762 276.6821 0350921 358.5717 001.4390 13.52935166558129 RS-15 1 23439U 94085A 07339.77874587 -.00000039 00000-0 10000-3 0 01014 2 23439 064.8139 089.4236 0154104 159.6126 201.1036 11.27552839533042 UO-11 1 14781U 84021B 07340.64118777 .00000057 00000-0 14922-4 0 5384 2 14781 098.1767 006.5476 0009017 343.7917 016.3032 14.79598807275232 AO-10 1 14129U 83058B 07338.04898995 .00000026 00000-0 10000-3 0 4496 2 14129 025.9721 242.7356 6047754 078.4945 339.9606 02.05869203184064 AO-07 1 07530U 74089B 07340.12444734 -.00000028 00000-0 10000-3 0 453 2 07530 101.4932 012.9327 0011826 281.0795 078.8946 12.53573003512662 LIBERT 1 31129U 07012N 07340.73891145 .00000337 00000-0 89029-4 0 5674 2 31129 098.0658 047.1380 0101546 212.5640 146.9230 14.51981727 33842 LIBERT 1 31129U 07012N 07340.73891145 .00000337 00000-0 89029-4 0 5674 2 31129 098.0658 047.1380 0101546 212.5640 146.9230 14.51981727 33842 LIBERT 1 31129U 07012N 07340.73891145 .00000337 00000-0 89029-4 0 5674 2 31129 098.0658 047.1380 0101546 212.5640 146.9230 14.51981727 33842 CP3 1 31128U 07012M 07340.20173590 -.00000048 00000-0 00000 0 0 1989 2 31128 098.0649 046.5987 0102500 214.0820 145.3791 14.51890648 33784 CP4 1 31122U 07012F 07340.72678970 .00000549 00000-0 13192-3 0 2034 2 31122 098.0661 048.2695 0085392 209.1203 150.5212 14.55058685 33941 NO-61 1 29664U 06055F 07340.84282790 .00226420 39151-4 15175-3 0 6917 2 29664 051.6223 251.5045 0001602 323.3216 036.7698 16.16378908 55793 NO-61 1 29664U 06055F 07340.84282790 .00226420 39151-4 15175-3 0 6917 2 29664 051.6223 251.5045 0001602 323.3216 036.7698 16.16378908 55793 NO-61 1 29664U 06055F 07340.84282790 .00226420 39151-4 15175-3 0 6917 2 29664 051.6223 251.5045 0001602 323.3216 036.7698 16.16378908 55793 HO-59 1 29484U 06041F 07340.63612453 .00043376 31410-5 22151-3 0 9218 2 29484 098.2641 058.2476 0155611 001.4824 358.7045 15.66018450 67921 HO-59 1 29484U 06041F 07340.63612453 .00043376 31410-5 22151-3 0 9218 2 29484 098.2641 058.2476 0155611 001.4824 358.7045 15.66018450 67921 HO-59 1 29484U 06041F 07340.63612453 .00043376 31410-5 22151-3 0 9218 2 29484 098.2641 058.2476 0155611 001.4824 358.7045 15.66018450 67921 CO-56 1 28941U 06005C 07340.61906957 .00019369 24688-5 17761-3 0 6850 2 28941 098.1101 061.6002 0201243 019.5221 341.3589 15.46812114100022 CO-56 1 28941U 06005C 07340.61906957 .00019369 24688-5 17761-3 0 6850 2 28941 098.1101 061.6002 0201243 019.5221 341.3589 15.46812114100022 CO-56 1 28941U 06005C 07340.61906957 .00019369 24688-5 17761-3 0 6850 2 28941 098.1101 061.6002 0201243 019.5221 341.3589 15.46812114100022 AO-51 1 28375U 04025K 07339.64108268 .00000022 00000-0 19246-4 0 09746 2 28375 098.0923 009.9487 0085175 023.1495 337.3496 14.40589323180390 CO-57 1 27848U 03031J 07340.01068523 .00000021 00000-0 30122-4 0 1385 2 27848 098.7180 345.1079 0009846 324.1682 035.8837 14.20360997229846 CO-55 1 27844U 03031E 07340.60185893 .00000047 00000-0 42209-4 0 1822 2 27844 098.7198 346.5517 0009458 319.4724 040.5750 14.20546918229954 SO-50 1 27607U 02058C 07339.88683510 -.00000011 00000-0 20479-4 0 04734 2 27607 064.5591 283.6917 0073601 318.5649 040.9862 14.71307827266387 NO-44 1 26931U 01043C 07339.71400922 -.00000310 00000-0 -88655-4 0 07491 2 26931 067.0523 065.6361 0005168 251.2884 108.7652 14.29503232322617 MO-46 1 26548U 00057D 07339.58234668 .00000148 00000-0 35742-4 0 09652 2 26548 064.5593 012.4069 0006023 349.4314 010.6685 14.83204440388959 GO-32 1 25397U 98043D 07339.78124342 .00000048 00000-0 39463-4 0 04685 2 25397 098.3933 019.2837 0002158 090.3588 269.7814 14.23135106488566 PO-28 1 22829U 93061G 07340.79817132 .00000019 00000-0 23388-4 0 8182 2 22829 098.3377 305.5077 0010762 082.1539 278.0884 14.30174151740480 IO-26 1 22826U 93061D 07340.57682193 .00000014 00000-0 21590-4 0 5435 2 22826 098.3505 304.1570 0009798 107.0645 253.1611 14.29471800740206 AO-27 1 22825U 93061C 07339.85913534 .00000097 00000-0 54396-4 0 08433 2 22825 098.3574 302.4705 0009181 110.8462 249.3711 14.29224873740010 LO-19 1 20442U 90005G 07340.43426728 .00000045 00000-0 31882-4 0 1207 2 20442 098.1892 334.6804 0012600 036.4811 323.7238 14.32017533933340 AO-16 1 20439U 90005D 07340.00530400 .00000003 00000-0 16293-4 0 1965 2 20439 098.2111 325.2229 0011808 038.3311 321.8719 14.31777514933134 NOAA-18 1 28654U 05018A 07340.76878342 -.00000025 00000-0 10102-4 0 2245 2 28654 098.8477 279.2903 0014838 137.7677 222.4668 14.11115788131196 NOAA-17 1 27453U 02032A 07340.39702320 -.00000037 00000-0 26932-5 0 7073 2 27453 098.5627 045.4034 0011048 316.2996 043.7318 14.23929818283220 NOAA-16 1 26536U 00055A 07340.18479341 -.00000212 00000-0 -89674-4 0 7110 2 26536 099.1393 320.3041 0011301 053.1045 307.1157 14.12459851371381 OKEAN-0 1 25860U 99039A 07339.63216394 .00000043 00000-0 13818-4 0 02295 2 25860 097.7384 333.9461 0001181 108.1347 251.9989 14.73488811450743 FENGYUN1 1 25730U 99025A 07339.94350453 -.00000016 00000-0 15691-4 0 02893 2 25730 098.7073 317.4576 0021008 358.3271 001.7825 14.07644770441637 RESURS 1 25394U 98043A 07340.48019625 -.00000023 00000-0 79420-5 0 8011 2 25394 098.4152 027.9810 0002400 053.5474 306.5927 14.24149872488874 NOAA-15 1 25338U 98030A 07340.31027775 .00000094 00000-0 58971-4 0 2661 2 25338 098.5432 332.2443 0009694 245.6828 114.3377 14.24675573497198 SICH-1 1 23657U 95046A 07340.11090822 .00000033 00000-0 10942-5 0 2433 2 23657 082.5275 277.0903 0025510 040.9807 319.3262 14.81530866661486 NOAA-14 1 23455U 94089A 07340.41514466 -.00000229 00000-0 -97177-4 0 9253 2 23455 098.9720 047.3471 0009004 337.9360 022.1433 14.13729147666974 OKEAN-4 1 23317U 94066A 07339.74950516 .00000254 00000-0 28498-4 0 04430 2 23317 082.5373 136.4902 0023567 050.5415 309.7876 14.82556774709470 MET-2/21 1 22782U 93055A 07340.11709808 .00000016 00000-0 10556-5 0 36 2 22782 082.5467 265.5107 0023917 112.5341 247.8361 13.83622047720297 MET-3/5 1 21655U 91056A 07339.93948895 .00000051 00000-0 10000-3 0 03777 2 21655 082.5558 241.5880 0014034 134.5045 225.7229 13.17012343784010 NOAA-12 1 21263U 91032A 07340.33858123 -.00000086 00000-0 -17556-4 0 4546 2 21263 098.7619 337.3715 0012044 332.3814 027.6747 14.25505326860774 NOAA-11 1 19531U 88089A 07340.18925645 -.00000169 00000-0 -64793-4 0 9481 2 19531 098.8072 067.1743 0010764 262.1282 097.8670 14.14856798990473 NOAA-10 1 16969U 86073A 07340.46971406 -.00000067 00000-0 -90547-5 0 9182 2 16969 098.7380 357.6887 0012831 029.4293 330.7615 14.27342755103803 NOAA-10 1 16969U 86073A 07340.46971406 -.00000067 00000-0 -90547-5 0 9182 2 16969 098.7380 357.6887 0012831 029.4293 330.7615 14.27342755103803 CAPE1 1 31130U 07012P 07340.75008132 .00000011 00000-0 13527-4 0 1804 2 31130 098.0665 047.1296 0102254 212.4505 147.0377 14.51909108 33650 MAST 1 31126U 07012K 07340.23693270 .00000047 00000-0 21615-4 0 2004 2 31126 098.0659 047.1791 0094385 212.4124 147.1278 14.53381510 33845 FALCON 1 30776U 07006E 07340.85997362 .00000265 00000-0 22447-4 0 1986 2 30776 035.4340 245.8239 0000471 205.2524 154.8171 15.02814786 41047 FCAL 1 29667U 06055J 07340.80930819 .00027721 11577-4 73726-4 0 5616 2 29667 051.6315 264.5066 0008221 309.8557 050.1659 15.96035780 55495 FCAL 1 29667U 06055J 07340.80930819 .00027721 11577-4 73726-4 0 5616 2 29667 051.6315 264.5066 0008221 309.8557 050.1659 15.96035780 55495 FCAL 1 29667U 06055J 07340.80930819 .00027721 11577-4 73726-4 0 5616 2 29667 051.6315 264.5066 0008221 309.8557 050.1659 15.96035780 55495 NCUBE2 1 28897U 05043H 07339.69790060 .00000163 00000-0 43832-4 0 04208 2 28897 098.1147 232.9699 0016639 301.1515 058.8052 14.59778142104390 CO-58 1 28895U 05043F 07340.73920853 .00000116 00000-0 34045-4 0 8914 2 28895 098.1158 234.0454 0017067 296.1732 063.7736 14.59611711112269 UWE-1 1 28892U 05043C 07339.60035894 .00000105 00000-0 31764-4 0 09157 2 28892 098.1129 232.6519 0016577 299.4597 060.4950 14.59568474112214 OO-38 1 26063U 00004C 07340.15164704 -.00000032 00000-0 94035-5 0 772 2 26063 100.2194 014.4917 0037196 036.2785 324.0907 14.35821533411724 ISS 1 25544U 98067A 07340.89565253 .00017011 00000-0 10585-3 0 4714 2 25544 051.6398 293.4372 0000572 296.0454 113.9889 15.77092424518024 ISS 1 25544U 98067A 07340.89565253 .00017011 00000-0 10585-3 0 4714 2 25544 051.6398 293.4372 0000572 296.0454 113.9889 15.77092424518024 ISS 1 25544U 98067A 07340.89565253 .00017011 00000-0 10585-3 0 4714 2 25544 051.6398 293.4372 0000572 296.0454 113.9889 15.77092424518024 ISS 1 25544U 98067A 07340.89565253 .00017011 00000-0 10585-3 0 4714 2 25544 051.6398 293.4372 0000572 296.0454 113.9889 15.77092424518024 ISS 1 25544U 98067A 07340.89565253 .00017011 00000-0 10585-3 0 4714 2 25544 051.6398 293.4372 0000572 296.0454 113.9889 15.77092424518024 ISS 1 25544U 98067A 07340.89565253 .00017011 00000-0 10585-3 0 4714 2 25544 051.6398 293.4372 0000572 296.0454 113.9889 15.77092424518024 PO-34 1 25520U 98064B 07339.54832755 .00000331 00000-0 65521-5 0 8813 2 25520 028.4602 041.7704 0005097 320.2522 039.7700 15.17092016503576 UARS 1 21701U 91063B 07340.85359773 .00002568 00000-0 46151-4 0 2345 2 21701 056.9744 283.7752 0091333 162.4577 197.9689 15.49797192892500 HUBBLE 1 20580U 90037B 07340.70304628 .00000285 00000-0 92066-5 0 217 2 20580 028.4671 145.1101 0003995 130.7786 229.3149 15.00310380765892 /EX
participants (1)
-
Ray Hoad